Time,TemperatureF,DewpointF,PressureIn,WindDirection,WindDirectionDegrees,WindSpeedMPH,WindSpeedGustMPH,Humidity,HourlyPrecipIn,Conditions,Clouds,dailyrainin,SolarRadiationWatts/m^2,SoftwareType,DateUTC
2013-01-20 00:01:00,37.8,29.6,30.19,SW,224,1.0,1.0,72,0.00,,,0.01,0,Wunderground v.1.15,2013-01-20 05:01:00,
2013-01-20 00:04:00,37.4,29.2,30.19,SSW,198,4.0,4.0,72,0.00,,,0.01,0,Wunderground v.1.15,2013-01-20 05:04:00,
2013-01-20 00:05:00,37.5,29.3,30.19,SSW,196,1.0,4.0,72,0.00,,,0.01,0,Wunderground v.1.15,2013-01-20 05:05:00,
2013-01-20 00:11:00,38.0,29.8,30.19,SSW,198,2.0,2.0,72,0.00,,,0.01,0,Wunderground v.1.15,2013-01-20 05:11:00,
2013-01-20 00:14:00,38.0,29.8,30.19,SSW,212,5.0,5.0,72,0.00,,,0.01,0,Wunderground v.1.15,2013-01-20 05:14:00,
2013-01-20 00:19:00,38.0,29.8,30.18,SW,224,4.0,5.0,72,0.00,,,0.01,0,Wunderground v.1.15,2013-01-20 05:19:00,
2013-01-20 00:25:00,37.8,29.9,30.18,SW,219,2.0,3.0,73,0.00,,,0.01,0,Wunderground v.1.15,2013-01-20 05:25:00,
2013-01-20 00:30:00,38.3,30.1,30.18,SW,217,1.0,2.0,72,0.00,,,0.01,0,Wunderground v.1.15,2013-01-20 05:30:00,
2013-01-20 00:36:00,38.7,30.1,30.18,SW,235,2.0,3.0,71,0.00,,,0.01,0,Wunderground v.1.15,2013-01-20 05:36:00,
2013-01-20 00:42:00,38.6,30.0,30.18,SSW,198,2.0,2.0,71,0.00,,,0.01,0,Wunderground v.1.15,2013-01-20 05:42:00,
2013-01-20 00:47:00,38.9,30.3,30.18,South,180,4.0,4.0,71,0.00,,,0.01,0,Wunderground v.1.15,2013-01-20 05:47:00,
2013-01-20 00:53:00,38.6,30.0,30.17,SSW,213,3.0,3.0,71,0.00,,,0.01,0,Wunderground v.1.15,2013-01-20 05:53:00,
2013-01-20 00:58:00,38.4,30.2,30.17,SSW,208,1.0,3.0,72,0.00,,,0.01,0,Wunderground v.1.15,2013-01-20 05:58:00,
2013-01-20 01:04:00,38.1,29.9,30.17,SW,217,2.0,3.0,72,0.00,,,0.01,0,Wunderground v.1.15,2013-01-20 06:04:00,
2013-01-20 01:09:00,38.0,29.8,30.17,SSW,202,1.0,4.0,72,0.00,,,0.00,0,Wunderground v.1.15,2013-01-20 06:09:00,
2013-01-20 01:15:00,37.9,30.0,30.16,South,184,2.0,3.0,73,0.00,,,0.00,0,Wunderground v.1.15,2013-01-20 06:15:00,
2013-01-20 01:21:00,37.8,29.9,30.16,SW,217,0.0,2.0,73,0.00,,,0.00,0,Wunderground v.1.15,2013-01-20 06:21:00,
2013-01-20 01:27:00,37.5,30.0,30.16,SSW,211,0.0,2.0,74,0.00,,,0.00,0,Wunderground v.1.15,2013-01-20 06:27:00,
2013-01-20 01:32:00,37.9,30.0,30.16,SSW,198,2.0,2.0,73,0.00,,,0.00,0,Wunderground v.1.15,2013-01-20 06:32:00,
2013-01-20 01:37:00,37.8,30.3,30.16,SW,224,0.0,3.0,74,0.00,,,0.00,0,Wunderground v.1.15,2013-01-20 06:37:00,
2013-01-20 01:42:00,37.4,29.9,30.16,SW,218,3.0,3.0,74,0.00,,,0.00,0,Wunderground v.1.15,2013-01-20 06:42:00,
2013-01-20 01:48:00,37.3,30.1,30.16,SSW,204,2.0,3.0,75,0.00,,,0.00,0,Wunderground v.1.15,2013-01-20 06:48:00,
2013-01-20 01:54:00,37.8,30.3,30.16,SSW,208,2.0,4.0,74,0.00,,,0.00,0,Wunderground v.1.15,2013-01-20 06:54:00,
2013-01-20 01:59:00,37.8,30.3,30.16,SSW,202,1.0,4.0,74,0.00,,,0.00,0,Wunderground v.1.15,2013-01-20 06:59:00,
2013-01-20 02:04:00,37.9,30.4,30.15,West,265,2.0,5.0,74,0.00,,,0.00,0,Wunderground v.1.15,2013-01-20 07:04:00,
2013-01-20 02:09:00,38.1,30.5,30.16,SW,225,0.0,5.0,74,0.00,,,0.00,0,Wunderground v.1.15,2013-01-20 07:09:00,
2013-01-20 02:14:00,37.8,30.3,30.15,WSW,239,2.0,2.0,74,0.00,,,0.00,0,Wunderground v.1.15,2013-01-20 07:14:00,
2013-01-20 02:19:00,37.7,30.5,30.15,WSW,250,0.0,3.0,75,0.00,,,0.00,0,Wunderground v.1.15,2013-01-20 07:19:00,
2013-01-20 02:24:00,37.5,30.6,30.15,SW,232,0.0,2.0,76,0.00,,,0.00,0,Wunderground v.1.15,2013-01-20 07:24:00,
2013-01-20 02:29:00,37.7,30.5,30.15,SW,231,0.0,3.0,75,0.00,,,0.00,0,Wunderground v.1.15,2013-01-20 07:29:00,
2013-01-20 02:34:00,37.5,30.6,30.15,SW,231,0.0,2.0,76,0.00,,,0.00,0,Wunderground v.1.15,2013-01-20 07:34:00,
2013-01-20 02:39:00,37.5,30.6,30.15,SW,229,0.0,2.0,76,0.00,,,0.00,0,Wunderground v.1.15,2013-01-20 07:39:00,
2013-01-20 02:44:00,37.1,30.6,30.14,SW,222,0.0,2.0,77,0.00,,,0.00,0,Wunderground v.1.15,2013-01-20 07:44:00,
2013-01-20 02:49:00,37.1,30.6,30.14,SW,221,0.0,3.0,77,0.00,,,0.00,0,Wunderground v.1.15,2013-01-20 07:49:00,
2013-01-20 02:54:00,37.3,30.7,30.14,SW,221,1.0,2.0,77,0.00,,,0.00,0,Wunderground v.1.15,2013-01-20 07:54:00,
2013-01-20 02:59:00,37.2,30.7,30.14,SW,219,2.0,4.0,77,0.00,,,0.00,0,Wunderground v.1.15,2013-01-20 07:59:00,
2013-01-20 03:04:00,37.5,30.9,30.13,SSW,209,3.0,4.0,77,0.00,,,0.00,0,Wunderground v.1.15,2013-01-20 08:04:00,
2013-01-20 03:09:00,37.6,30.7,30.13,SSW,213,1.0,4.0,76,0.00,,,0.00,0,Wunderground v.1.15,2013-01-20 08:09:00,
2013-01-20 03:14:00,37.3,30.4,30.13,South,180,1.0,4.0,76,0.00,,,0.00,0,Wunderground v.1.15,2013-01-20 08:14:00,
2013-01-20 03:19:00,37.4,30.5,30.13,SW,225,5.0,5.0,76,0.00,,,0.00,0,Wunderground v.1.15,2013-01-20 08:19:00,
2013-01-20 03:24:00,37.8,30.9,30.13,SW,220,0.0,4.0,76,0.00,,,0.00,0,Wunderground v.1.15,2013-01-20 08:24:00,
2013-01-20 03:29:00,37.9,31.0,30.13,SSW,208,0.0,4.0,76,0.00,,,0.00,0,Wunderground v.1.15,2013-01-20 08:29:00,
2013-01-20 03:34:00,38.2,31.0,30.12,SW,218,0.0,3.0,75,0.00,,,0.00,0,Wunderground v.1.15,2013-01-20 08:34:00,
2013-01-20 03:39:00,38.4,31.2,30.12,SW,221,1.0,3.0,75,0.00,,,0.00,0,Wunderground v.1.15,2013-01-20 08:39:00,
2013-01-20 03:44:00,38.6,31.0,30.12,SW,227,1.0,4.0,74,0.00,,,0.00,0,Wunderground v.1.15,2013-01-20 08:44:00,
2013-01-20 03:49:00,38.7,31.1,30.12,SW,224,1.0,6.0,74,0.00,,,0.00,0,Wunderground v.1.15,2013-01-20 08:49:00,
2013-01-20 03:54:00,38.8,30.9,30.12,SSW,205,4.0,5.0,73,0.00,,,0.00,0,Wunderground v.1.15,2013-01-20 08:54:00,
2013-01-20 03:59:00,39.1,31.2,30.12,WSW,247,0.0,6.0,73,0.00,,,0.00,0,Wunderground v.1.15,2013-01-20 08:59:00,
2013-01-20 04:04:00,39.1,31.2,30.12,SW,234,0.0,4.0,73,0.00,,,0.00,0,Wunderground v.1.15,2013-01-20 09:04:00,
2013-01-20 04:09:00,38.9,31.0,30.12,West,275,0.0,4.0,73,0.00,,,0.00,0,Wunderground v.1.15,2013-01-20 09:09:00,
2013-01-20 04:14:00,39.1,31.2,30.12,SW,228,3.0,5.0,73,0.00,,,0.00,0,Wunderground v.1.15,2013-01-20 09:14:00,
2013-01-20 04:19:00,39.2,30.9,30.11,WSW,238,2.0,5.0,72,0.00,,,0.00,0,Wunderground v.1.15,2013-01-20 09:19:00,
2013-01-20 04:24:00,39.3,31.0,30.11,SW,223,2.0,4.0,72,0.00,,,0.00,0,Wunderground v.1.15,2013-01-20 09:24:00,
2013-01-20 04:29:00,39.2,30.9,30.11,WSW,244,4.0,5.0,72,0.00,,,0.00,0,Wunderground v.1.15,2013-01-20 09:29:00,
2013-01-20 04:34:00,39.4,31.1,30.11,SW,215,1.0,5.0,72,0.00,,,0.00,0,Wunderground v.1.15,2013-01-20 09:34:00,
2013-01-20 04:39:00,39.3,31.0,30.11,SW,223,1.0,5.0,72,0.00,,,0.00,0,Wunderground v.1.15,2013-01-20 09:39:00,
2013-01-20 04:44:00,39.1,30.8,30.11,WSW,250,0.0,2.0,72,0.00,,,0.00,0,Wunderground v.1.15,2013-01-20 09:44:00,
2013-01-20 04:50:00,39.1,30.8,30.11,West,276,0.0,1.0,72,0.00,,,0.00,0,Wunderground v.1.15,2013-01-20 09:50:00,
2013-01-20 04:55:00,39.0,30.7,30.11,West,259,0.0,2.0,72,0.00,,,0.00,0,Wunderground v.1.15,2013-01-20 09:55:00,
2013-01-20 05:00:00,39.2,30.9,30.11,West,263,0.0,1.0,72,0.00,,,0.00,0,Wunderground v.1.15,2013-01-20 10:00:00,
2013-01-20 05:05:00,39.1,30.8,30.11,WSW,250,0.0,4.0,72,0.00,,,0.00,0,Wunderground v.1.15,2013-01-20 10:05:00,
2013-01-20 05:10:00,39.1,30.8,30.11,SW,227,1.0,2.0,72,0.00,,,0.00,0,Wunderground v.1.15,2013-01-20 10:10:00,
2013-01-20 05:15:00,39.2,30.6,30.10,WSW,238,0.0,6.0,71,0.00,,,0.00,0,Wunderground v.1.15,2013-01-20 10:15:00,
2013-01-20 05:20:00,39.3,30.7,30.10,WSW,255,1.0,1.0,71,0.00,,,0.00,0,Wunderground v.1.15,2013-01-20 10:20:00,
2013-01-20 05:25:00,39.3,30.7,30.10,SW,217,2.0,4.0,71,0.00,,,0.00,0,Wunderground v.1.15,2013-01-20 10:25:00,
2013-01-20 05:30:00,39.0,30.7,30.11,West,264,0.0,1.0,72,0.00,,,0.00,0,Wunderground v.1.15,2013-01-20 10:30:00,
2013-01-20 05:35:00,38.8,30.5,30.11,WSW,248,0.0,2.0,72,0.00,,,0.00,0,Wunderground v.1.15,2013-01-20 10:35:00,
2013-01-20 05:40:00,38.9,30.6,30.10,WSW,246,0.0,1.0,72,0.00,,,0.00,0,Wunderground v.1.15,2013-01-20 10:40:00,
2013-01-20 05:45:00,38.7,30.4,30.10,SW,236,0.0,4.0,72,0.00,,,0.00,0,Wunderground v.1.15,2013-01-20 10:45:00,
2013-01-20 05:50:00,38.8,30.5,30.10,SW,234,0.0,2.0,72,0.00,,,0.00,0,Wunderground v.1.15,2013-01-20 10:50:00,
2013-01-20 05:55:00,38.9,30.6,30.10,SW,229,1.0,4.0,72,0.00,,,0.00,0,Wunderground v.1.15,2013-01-20 10:55:00,
2013-01-20 06:00:00,38.9,30.6,30.10,West,260,0.0,2.0,72,0.00,,,0.00,0,Wunderground v.1.15,2013-01-20 11:00:00,
2013-01-20 06:05:00,39.0,30.7,30.10,WSW,250,1.0,4.0,72,0.00,,,0.00,0,Wunderground v.1.15,2013-01-20 11:05:00,
2013-01-20 06:10:00,39.1,30.5,30.10,SSW,212,0.0,4.0,71,0.00,,,0.00,0,Wunderground v.1.15,2013-01-20 11:10:00,
2013-01-20 06:15:00,39.0,30.7,30.10,SW,227,1.0,4.0,72,0.00,,,0.00,0,Wunderground v.1.15,2013-01-20 11:15:00,
2013-01-20 06:20:00,39.0,30.7,30.10,SSW,213,0.0,2.0,72,0.00,,,0.00,0,Wunderground v.1.15,2013-01-20 11:20:00,
2013-01-20 06:25:00,38.7,30.4,30.10,WSW,241,0.0,3.0,72,0.00,,,0.00,0,Wunderground v.1.15,2013-01-20 11:25:00,
2013-01-20 06:31:00,38.9,30.6,30.10,WSW,254,0.0,1.0,72,0.00,,,0.00,0,Wunderground v.1.15,2013-01-20 11:31:00,
2013-01-20 06:36:00,39.1,30.8,30.10,SW,223,1.0,3.0,72,0.00,,,0.00,0,Wunderground v.1.15,2013-01-20 11:36:00,
2013-01-20 06:41:00,39.0,30.7,30.10,SW,232,0.0,3.0,72,0.00,,,0.00,0,Wunderground v.1.15,2013-01-20 11:41:00,
2013-01-20 06:46:00,38.7,30.4,30.10,WSW,250,1.0,4.0,72,0.00,,,0.00,0,Wunderground v.1.15,2013-01-20 11:46:00,
2013-01-20 06:51:00,38.4,30.5,30.10,SW,227,2.0,2.0,73,0.00,,,0.00,0,Wunderground v.1.15,2013-01-20 11:51:00,
2013-01-20 06:56:00,38.3,30.4,30.10,WSW,240,0.0,4.0,73,0.00,,,0.00,0,Wunderground v.1.15,2013-01-20 11:56:00,
2013-01-20 07:01:00,38.3,30.7,30.11,West,259,0.0,2.0,74,0.00,,,0.00,0,Wunderground v.1.15,2013-01-20 12:01:00,
2013-01-20 07:06:00,38.4,30.5,30.10,SW,227,0.0,3.0,73,0.00,,,0.00,0,Wunderground v.1.15,2013-01-20 12:06:00,
2013-01-20 07:11:00,38.4,30.5,30.10,SW,217,1.0,2.0,73,0.00,,,0.00,0,Wunderground v.1.15,2013-01-20 12:11:00,
2013-01-20 07:16:00,38.5,30.6,30.10,SW,232,1.0,3.0,73,0.00,,,0.00,0,Wunderground v.1.15,2013-01-20 12:16:00,
2013-01-20 07:21:00,38.5,30.6,30.10,WSW,250,0.0,1.0,73,0.00,,,0.00,0,Wunderground v.1.15,2013-01-20 12:21:00,
2013-01-20 07:26:00,38.3,30.4,30.10,West,265,0.0,2.0,73,0.00,,,0.00,7,Wunderground v.1.15,2013-01-20 12:26:00,
2013-01-20 07:31:00,38.2,30.6,30.10,West,265,0.0,2.0,74,0.00,,,0.00,9,Wunderground v.1.15,2013-01-20 12:31:00,
2013-01-20 07:36:00,38.0,30.8,30.10,WSW,240,0.0,3.0,75,0.00,,,0.00,11,Wunderground v.1.15,2013-01-20 12:36:00,
2013-01-20 07:41:00,38.0,30.8,30.10,WSW,241,1.0,2.0,75,0.00,,,0.00,18,Wunderground v.1.15,2013-01-20 12:41:00,
2013-01-20 07:46:00,38.1,30.9,30.10,SW,225,0.0,4.0,75,0.00,,,0.00,47,Wunderground v.1.15,2013-01-20 12:46:00,
2013-01-20 07:51:00,38.2,30.6,30.10,WSW,251,2.0,2.0,74,0.00,,,0.00,67,Wunderground v.1.15,2013-01-20 12:51:00,
2013-01-20 07:56:00,38.6,31.0,30.10,WSW,254,2.0,4.0,74,0.00,,,0.00,83,Wunderground v.1.15,2013-01-20 12:56:00,
2013-01-20 08:01:00,39.2,31.3,30.10,West,264,1.0,3.0,73,0.00,,,0.00,93,Wunderground v.1.15,2013-01-20 13:01:00,
2013-01-20 08:06:00,39.5,31.2,30.10,West,277,2.0,4.0,72,0.00,,,0.00,53,Wunderground v.1.15,2013-01-20 13:06:00,
2013-01-20 08:11:00,39.6,31.3,30.10,SW,217,2.0,5.0,72,0.00,,,0.00,137,Wunderground v.1.15,2013-01-20 13:11:00,
2013-01-20 08:16:00,40.2,31.2,30.10,WSW,246,2.0,5.0,70,0.00,,,0.00,95,Wunderground v.1.15,2013-01-20 13:16:00,
2013-01-20 08:21:00,40.6,31.6,30.10,West,274,2.0,5.0,70,0.00,,,0.00,176,Wunderground v.1.15,2013-01-20 13:21:00,
2013-01-20 08:26:00,41.1,31.7,30.10,West,275,0.0,5.0,69,0.00,,,0.00,192,Wunderground v.1.15,2013-01-20 13:26:00,
2013-01-20 08:31:00,41.5,31.7,30.10,WSW,248,0.0,3.0,68,0.00,,,0.00,207,Wunderground v.1.15,2013-01-20 13:31:00,
2013-01-20 08:36:00,42.1,31.9,30.10,SW,234,1.0,4.0,67,0.00,,,0.00,225,Wunderground v.1.15,2013-01-20 13:36:00,
2013-01-20 08:41:00,42.5,31.9,30.11,West,279,1.0,6.0,66,0.00,,,0.00,230,Wunderground v.1.15,2013-01-20 13:41:00,
2013-01-20 08:46:00,42.7,32.1,30.11,WSW,248,3.0,6.0,66,0.00,,,0.00,262,Wunderground v.1.15,2013-01-20 13:46:00,
2013-01-20 08:51:00,43.2,32.2,30.11,SSW,209,2.0,6.0,65,0.00,,,0.00,265,Wunderground v.1.15,2013-01-20 13:51:00,
2013-01-20 08:56:00,43.6,32.2,30.11,SSW,208,2.0,8.0,64,0.00,,,0.00,288,Wunderground v.1.15,2013-01-20 13:56:00,
2013-01-20 09:01:00,43.9,32.5,30.11,WSW,240,1.0,5.0,64,0.00,,,0.00,301,Wunderground v.1.15,2013-01-20 14:01:00,
2013-01-20 09:06:00,44.2,32.8,30.11,SSW,207,3.0,7.0,64,0.00,,,0.00,315,Wunderground v.1.15,2013-01-20 14:06:00,
2013-01-20 09:11:00,44.7,32.9,30.12,SW,231,3.0,6.0,63,0.00,,,0.00,327,Wunderground v.1.15,2013-01-20 14:11:00,
2013-01-20 09:16:00,45.0,32.8,30.12,SW,222,5.0,10.0,62,0.00,,,0.00,341,Wunderground v.1.15,2013-01-20 14:16:00,
2013-01-20 09:21:00,45.4,33.1,30.12,WSW,254,4.0,7.0,62,0.00,,,0.00,353,Wunderground v.1.15,2013-01-20 14:21:00,
2013-01-20 09:26:00,46.1,33.0,30.12,WSW,246,4.0,7.0,60,0.00,,,0.00,367,Wunderground v.1.15,2013-01-20 14:26:00,
2013-01-20 09:31:00,46.5,33.4,30.12,WNW,294,3.0,6.0,60,0.00,,,0.00,381,Wunderground v.1.15,2013-01-20 14:31:00,
2013-01-20 09:36:00,47.2,33.6,30.12,SW,224,3.0,6.0,59,0.00,,,0.00,392,Wunderground v.1.15,2013-01-20 14:36:00,
2013-01-20 09:41:00,47.7,34.5,30.12,SSE,160,3.0,3.0,60,0.00,,,0.00,404,Wunderground v.1.15,2013-01-20 14:41:00,
2013-01-20 09:46:00,48.1,33.1,30.12,West,266,4.0,9.0,56,0.00,,,0.00,417,Wunderground v.1.15,2013-01-20 14:46:00,
2013-01-20 09:51:00,48.7,34.1,30.12,SW,232,2.0,8.0,57,0.00,,,0.00,425,Wunderground v.1.15,2013-01-20 14:51:00,
2013-01-20 09:56:00,49.3,33.8,30.12,WSW,251,5.0,10.0,55,0.00,,,0.00,438,Wunderground v.1.15,2013-01-20 14:56:00,
2013-01-20 10:01:00,49.9,34.4,30.12,WSW,238,4.0,5.0,55,0.00,,,0.00,446,Wunderground v.1.15,2013-01-20 15:01:00,
2013-01-20 10:06:00,50.6,34.1,30.12,West,261,3.0,8.0,53,0.00,,,0.00,459,Wunderground v.1.15,2013-01-20 15:06:00,
2013-01-20 10:11:00,51.3,34.3,30.12,West,273,5.0,10.0,52,0.00,,,0.00,469,Wunderground v.1.15,2013-01-20 15:11:00,
2013-01-20 10:16:00,52.0,34.9,30.12,WNW,288,3.0,10.0,52,0.00,,,0.00,478,Wunderground v.1.15,2013-01-20 15:16:00,
2013-01-20 10:22:00,52.4,35.3,30.11,WSW,249,4.0,7.0,52,0.00,,,0.00,489,Wunderground v.1.15,2013-01-20 15:22:00,
2013-01-20 10:27:00,53.0,35.3,30.11,SSW,209,6.0,9.0,51,0.00,,,0.00,496,Wunderground v.1.15,2013-01-20 15:27:00,
2013-01-20 10:32:00,53.3,34.6,30.11,West,270,3.0,11.0,49,0.00,,,0.00,504,Wunderground v.1.15,2013-01-20 15:32:00,
2013-01-20 10:37:00,53.8,34.6,30.11,West,259,5.0,11.0,48,0.00,,,0.00,512,Wunderground v.1.15,2013-01-20 15:37:00,
2013-01-20 10:42:00,54.2,34.9,30.11,SW,217,9.0,10.0,48,0.00,,,0.00,519,Wunderground v.1.15,2013-01-20 15:42:00,
2013-01-20 10:47:00,54.2,34.9,30.11,WSW,243,9.0,10.0,48,0.00,,,0.00,526,Wunderground v.1.15,2013-01-20 15:47:00,
2013-01-20 10:52:00,54.4,34.6,30.10,WSW,240,0.0,9.0,47,0.00,,,0.00,534,Wunderground v.1.15,2013-01-20 15:52:00,
2013-01-20 10:57:00,54.9,35.6,30.10,NW,308,0.0,10.0,48,0.00,,,0.00,540,Wunderground v.1.15,2013-01-20 15:57:00,
2013-01-20 11:02:00,55.0,35.1,30.10,WSW,249,4.0,4.0,47,0.00,,,0.00,545,Wunderground v.1.15,2013-01-20 16:02:00,
2013-01-20 11:07:00,55.5,35.6,30.10,West,265,3.0,8.0,47,0.00,,,0.00,550,Wunderground v.1.15,2013-01-20 16:07:00,
2013-01-20 11:12:00,55.4,35.5,30.10,North,5,2.0,8.0,47,0.00,,,0.00,555,Wunderground v.1.15,2013-01-20 16:12:00,
2013-01-20 11:17:00,55.2,35.3,30.09,SSW,202,6.0,9.0,47,0.00,,,0.00,559,Wunderground v.1.15,2013-01-20 16:17:00,
2013-01-20 11:22:00,55.3,34.9,30.09,SSW,208,7.0,19.0,46,0.00,,,0.00,564,Wunderground v.1.15,2013-01-20 16:22:00,
2013-01-20 11:27:00,55.1,34.7,30.09,West,261,3.0,19.0,46,0.00,,,0.00,566,Wunderground v.1.15,2013-01-20 16:27:00,
2013-01-20 11:32:00,55.3,34.9,30.09,WNW,288,5.0,8.0,46,0.00,,,0.00,570,Wunderground v.1.15,2013-01-20 16:32:00,
2013-01-20 11:37:00,55.6,35.7,30.09,WSW,242,0.0,11.0,47,0.00,,,0.00,571,Wunderground v.1.15,2013-01-20 16:37:00,
2013-01-20 11:42:00,56.9,36.9,30.08,WNW,294,5.0,12.0,47,0.00,,,0.00,575,Wunderground v.1.15,2013-01-20 16:42:00,
2013-01-20 11:47:00,56.4,35.3,30.08,WNW,300,3.0,13.0,45,0.00,,,0.00,578,Wunderground v.1.15,2013-01-20 16:47:00,
2013-01-20 11:52:00,56.1,35.6,30.08,South,184,5.0,9.0,46,0.00,,,0.00,578,Wunderground v.1.15,2013-01-20 16:52:00,
2013-01-20 11:57:00,56.3,35.2,30.08,South,191,4.0,16.0,45,0.00,,,0.00,580,Wunderground v.1.15,2013-01-20 16:57:00,
2013-01-20 12:02:00,56.7,36.1,30.07,WNW,287,6.0,10.0,46,0.00,,,0.00,580,Wunderground v.1.15,2013-01-20 17:02:00,
2013-01-20 12:07:00,57.0,36.4,30.07,SW,231,5.0,12.0,46,0.00,,,0.00,580,Wunderground v.1.15,2013-01-20 17:07:00,
2013-01-20 12:12:00,57.3,36.1,30.07,NW,319,2.0,7.0,45,0.00,,,0.00,582,Wunderground v.1.15,2013-01-20 17:12:00,
2013-01-20 12:17:00,57.3,36.1,30.06,WNW,288,5.0,11.0,45,0.00,,,0.00,580,Wunderground v.1.15,2013-01-20 17:17:00,
2013-01-20 12:22:00,57.6,35.8,30.06,West,259,3.0,13.0,44,0.00,,,0.00,578,Wunderground v.1.15,2013-01-20 17:22:00,
2013-01-20 12:27:00,58.0,35.6,30.06,WSW,247,3.0,14.0,43,0.00,,,0.00,573,Wunderground v.1.15,2013-01-20 17:27:00,
2013-01-20 12:32:00,57.8,35.4,30.06,WNW,299,6.0,12.0,43,0.00,,,0.00,573,Wunderground v.1.15,2013-01-20 17:32:00,
2013-01-20 12:37:00,57.6,36.4,30.06,West,267,1.0,14.0,45,0.00,,,0.00,568,Wunderground v.1.15,2013-01-20 17:37:00,
2013-01-20 12:42:00,58.0,36.2,30.06,West,273,2.0,8.0,44,0.00,,,0.00,564,Wunderground v.1.15,2013-01-20 17:42:00,
2013-01-20 12:47:00,57.8,35.4,30.06,WNW,293,5.0,15.0,43,0.00,,,0.00,563,Wunderground v.1.15,2013-01-20 17:47:00,
2013-01-20 12:52:00,57.7,36.5,30.05,SW,235,6.0,7.0,45,0.00,,,0.00,559,Wunderground v.1.15,2013-01-20 17:52:00,
2013-01-20 12:57:00,58.2,36.9,30.05,West,277,6.0,8.0,45,0.00,,,0.00,552,Wunderground v.1.15,2013-01-20 17:57:00,
2013-01-20 13:02:00,58.3,36.5,30.05,West,271,2.0,7.0,44,0.00,,,0.00,548,Wunderground v.1.15,2013-01-20 18:02:00,
2013-01-20 13:07:00,58.2,35.2,30.05,WSW,250,6.0,10.0,42,0.00,,,0.00,543,Wunderground v.1.15,2013-01-20 18:07:00,
2013-01-20 13:12:00,58.2,35.8,30.04,WSW,248,5.0,7.0,43,0.00,,,0.00,541,Wunderground v.1.15,2013-01-20 18:12:00,
2013-01-20 13:17:00,58.2,35.2,30.04,WNW,288,8.0,13.0,42,0.00,,,0.00,534,Wunderground v.1.15,2013-01-20 18:17:00,
2013-01-20 13:22:00,58.5,35.5,30.04,NW,318,3.0,11.0,42,0.00,,,0.00,524,Wunderground v.1.15,2013-01-20 18:22:00,
2013-01-20 13:27:00,58.6,36.2,30.04,West,265,7.0,11.0,43,0.00,,,0.00,520,Wunderground v.1.15,2013-01-20 18:27:00,
2013-01-20 13:32:00,58.6,35.6,30.04,WSW,247,3.0,8.0,42,0.00,,,0.00,512,Wunderground v.1.15,2013-01-20 18:32:00,
2013-01-20 13:37:00,59.0,35.3,30.03,South,182,3.0,12.0,41,0.00,,,0.00,508,Wunderground v.1.15,2013-01-20 18:37:00,
2013-01-20 13:42:00,59.0,35.3,30.04,WNW,302,8.0,11.0,41,0.00,,,0.00,497,Wunderground v.1.15,2013-01-20 18:42:00,
2013-01-20 13:47:00,58.6,34.3,30.04,West,279,2.0,13.0,40,0.00,,,0.00,492,Wunderground v.1.15,2013-01-20 18:47:00,
2013-01-20 13:52:00,58.5,34.9,30.03,NNW,346,1.0,9.0,41,0.00,,,0.00,483,Wunderground v.1.15,2013-01-20 18:52:00,
2013-01-20 13:57:00,58.8,35.7,30.03,West,259,3.0,15.0,42,0.00,,,0.00,475,Wunderground v.1.15,2013-01-20 18:57:00,
2013-01-20 14:02:00,58.7,35.7,30.03,SSW,192,3.0,20.0,42,0.00,,,0.00,464,Wunderground v.1.15,2013-01-20 19:02:00,
2013-01-20 14:07:00,58.7,35.0,30.03,West,281,4.0,20.0,41,0.00,,,0.00,455,Wunderground v.1.15,2013-01-20 19:07:00,
2013-01-20 14:12:00,58.9,35.8,30.03,WNW,296,8.0,13.0,42,0.00,,,0.00,445,Wunderground v.1.15,2013-01-20 19:12:00,
2013-01-20 14:17:00,59.0,35.9,30.03,WSW,246,6.0,13.0,42,0.00,,,0.00,432,Wunderground v.1.15,2013-01-20 19:17:00,
2013-01-20 14:23:00,59.5,35.1,30.03,West,270,12.0,14.0,40,0.00,,,0.00,420,Wunderground v.1.15,2013-01-20 19:23:00,
2013-01-20 14:28:00,59.8,37.2,30.03,West,277,1.0,14.0,43,0.00,,,0.00,408,Wunderground v.1.15,2013-01-20 19:28:00,
2013-01-20 14:33:00,59.9,36.1,30.03,SSW,209,5.0,16.0,41,0.00,,,0.00,399,Wunderground v.1.15,2013-01-20 19:33:00,
2013-01-20 14:38:00,59.6,36.5,30.03,SW,233,6.0,16.0,42,0.00,,,0.00,387,Wunderground v.1.15,2013-01-20 19:38:00,
2013-01-20 14:43:00,59.5,35.1,30.03,SW,221,8.0,14.0,40,0.00,,,0.00,378,Wunderground v.1.15,2013-01-20 19:43:00,
2013-01-20 14:48:00,59.8,37.2,30.03,WSW,239,9.0,14.0,43,0.00,,,0.00,364,Wunderground v.1.15,2013-01-20 19:48:00,
2013-01-20 14:53:00,59.8,36.0,30.03,WNW,284,4.0,9.0,41,0.00,,,0.00,353,Wunderground v.1.15,2013-01-20 19:53:00,
2013-01-20 14:58:00,59.7,36.6,30.03,SW,235,9.0,11.0,42,0.00,,,0.00,341,Wunderground v.1.15,2013-01-20 19:58:00,
2013-01-20 15:03:00,60.0,36.8,30.03,SSW,196,3.0,8.0,42,0.00,,,0.00,327,Wunderground v.1.15,2013-01-20 20:03:00,
2013-01-20 15:08:00,60.1,36.3,30.02,WNW,302,0.0,13.0,41,0.00,,,0.00,315,Wunderground v.1.15,2013-01-20 20:08:00,
2013-01-20 15:13:00,60.0,36.8,30.02,SSW,213,5.0,5.0,42,0.00,,,0.00,302,Wunderground v.1.15,2013-01-20 20:13:00,
2013-01-20 15:18:00,60.2,36.4,30.03,SW,228,2.0,9.0,41,0.00,,,0.00,288,Wunderground v.1.15,2013-01-20 20:18:00,
2013-01-20 15:23:00,60.3,35.9,30.03,West,270,6.0,15.0,40,0.00,,,0.00,271,Wunderground v.1.15,2013-01-20 20:23:00,
2013-01-20 15:28:00,59.9,35.5,30.03,West,270,6.0,16.0,40,0.00,,,0.00,253,Wunderground v.1.15,2013-01-20 20:28:00,
2013-01-20 15:33:00,60.0,36.2,30.03,WSW,256,3.0,8.0,41,0.00,,,0.00,237,Wunderground v.1.15,2013-01-20 20:33:00,
2013-01-20 15:38:00,60.2,36.4,30.03,NW,321,1.0,8.0,41,0.00,,,0.00,218,Wunderground v.1.15,2013-01-20 20:38:00,
2013-01-20 15:43:00,60.3,35.2,30.02,South,186,1.0,13.0,39,0.00,,,0.00,199,Wunderground v.1.15,2013-01-20 20:43:00,
2013-01-20 15:48:00,60.1,35.0,30.03,NW,326,3.0,13.0,39,0.00,,,0.00,185,Wunderground v.1.15,2013-01-20 20:48:00,
2013-01-20 15:53:00,60.1,35.7,30.03,SSW,193,2.0,9.0,40,0.00,,,0.00,167,Wunderground v.1.15,2013-01-20 20:53:00,
2013-01-20 15:58:00,60.0,35.0,30.03,West,269,1.0,9.0,39,0.00,,,0.00,148,Wunderground v.1.15,2013-01-20 20:58:00,
2013-01-20 16:03:00,60.0,35.0,30.03,NW,317,3.0,5.0,39,0.00,,,0.00,130,Wunderground v.1.15,2013-01-20 21:03:00,
2013-01-20 16:09:00,59.8,34.1,30.03,West,281,3.0,8.0,38,0.00,,,0.00,113,Wunderground v.1.15,2013-01-20 21:09:00,
2013-01-20 16:14:00,59.5,33.9,30.03,SW,215,2.0,7.0,38,0.00,,,0.00,95,Wunderground v.1.15,2013-01-20 21:14:00,
2013-01-20 16:19:00,59.4,34.4,30.03,West,279,1.0,7.0,39,0.00,,,0.00,79,Wunderground v.1.15,2013-01-20 21:19:00,
2013-01-20 16:24:00,59.2,33.6,30.03,WSW,240,1.0,4.0,38,0.00,,,0.00,65,Wunderground v.1.15,2013-01-20 21:24:00,
2013-01-20 16:29:00,58.8,33.2,30.04,WSW,245,0.0,7.0,38,0.00,,,0.00,54,Wunderground v.1.15,2013-01-20 21:29:00,
2013-01-20 16:34:00,58.4,32.9,30.04,WNW,299,0.0,13.0,38,0.00,,,0.00,42,Wunderground v.1.15,2013-01-20 21:34:00,
2013-01-20 16:39:00,58.0,31.2,30.04,WNW,290,4.0,13.0,36,0.00,,,0.00,32,Wunderground v.1.15,2013-01-20 21:39:00,
2013-01-20 16:44:00,57.7,31.6,30.04,WSW,248,1.0,6.0,37,0.00,,,0.00,25,Wunderground v.1.15,2013-01-20 21:44:00,
2013-01-20 16:49:00,57.5,31.4,30.04,WSW,257,2.0,7.0,37,0.00,,,0.00,23,Wunderground v.1.15,2013-01-20 21:49:00,
2013-01-20 16:54:00,57.0,31.6,30.05,WNW,284,4.0,5.0,38,0.00,,,0.00,21,Wunderground v.1.15,2013-01-20 21:54:00,
2013-01-20 16:59:00,56.7,31.4,30.05,WNW,289,5.0,7.0,38,0.00,,,0.00,19,Wunderground v.1.15,2013-01-20 21:59:00,
2013-01-20 17:04:00,56.4,32.4,30.05,West,271,6.0,6.0,40,0.00,,,0.00,18,Wunderground v.1.15,2013-01-20 22:04:00,
2013-01-20 17:09:00,56.1,31.5,30.05,NW,313,3.0,11.0,39,0.00,,,0.00,14,Wunderground v.1.15,2013-01-20 22:09:00,
2013-01-20 17:14:00,55.8,31.2,30.05,NW,314,1.0,8.0,39,0.00,,,0.00,12,Wunderground v.1.15,2013-01-20 22:14:00,
2013-01-20 17:19:00,55.3,31.4,30.06,West,268,2.0,8.0,40,0.00,,,0.00,9,Wunderground v.1.15,2013-01-20 22:19:00,
2013-01-20 17:24:00,55.0,31.1,30.06,West,261,0.0,9.0,40,0.00,,,0.00,7,Wunderground v.1.15,2013-01-20 22:24:00,
2013-01-20 17:29:00,54.5,31.9,30.06,NNW,328,0.0,9.0,42,0.00,,,0.00,5,Wunderground v.1.15,2013-01-20 22:29:00,
2013-01-20 17:34:00,54.1,31.5,30.06,WNW,284,0.0,5.0,42,0.00,,,0.00,0,Wunderground v.1.15,2013-01-20 22:34:00,
2013-01-20 17:39:00,53.7,31.7,30.07,West,261,0.0,5.0,43,0.00,,,0.00,0,Wunderground v.1.15,2013-01-20 22:39:00,
2013-01-20 17:44:00,53.1,31.7,30.07,WNW,298,1.0,6.0,44,0.00,,,0.00,0,Wunderground v.1.15,2013-01-20 22:44:00,
2013-01-20 17:49:00,52.5,31.8,30.07,NNW,340,0.0,6.0,45,0.00,,,0.00,0,Wunderground v.1.15,2013-01-20 22:49:00,
2013-01-20 17:54:00,52.1,31.9,30.07,WNW,302,0.0,6.0,46,0.00,,,0.00,0,Wunderground v.1.15,2013-01-20 22:54:00,
2013-01-20 17:59:00,51.9,31.7,30.08,NW,318,1.0,6.0,46,0.00,,,0.00,0,Wunderground v.1.15,2013-01-20 22:59:00,
2013-01-20 18:04:00,51.8,32.2,30.08,WNW,297,1.0,2.0,47,0.00,,,0.00,0,Wunderground v.1.15,2013-01-20 23:04:00,
2013-01-20 18:09:00,51.2,32.2,30.08,WNW,297,1.0,3.0,48,0.00,,,0.00,0,Wunderground v.1.15,2013-01-20 23:09:00,
2013-01-20 18:14:00,50.8,31.8,30.09,West,276,0.0,4.0,48,0.00,,,0.00,0,Wunderground v.1.15,2013-01-20 23:14:00,
2013-01-20 18:19:00,50.9,31.9,30.09,WNW,298,0.0,4.0,48,0.00,,,0.00,0,Wunderground v.1.15,2013-01-20 23:19:00,
2013-01-20 18:24:00,51.1,31.6,30.09,WNW,298,0.0,1.0,47,0.00,,,0.00,0,Wunderground v.1.15,2013-01-20 23:24:00,
2013-01-20 18:29:00,50.8,32.3,30.10,WNW,298,0.0,1.0,49,0.00,,,0.00,0,Wunderground v.1.15,2013-01-20 23:29:00,
2013-01-20 18:34:00,50.2,31.8,30.10,WNW,302,1.0,3.0,49,0.00,,,0.00,0,Wunderground v.1.15,2013-01-20 23:34:00,
2013-01-20 18:39:00,49.9,31.0,30.10,WNW,289,0.0,3.0,48,0.00,,,0.00,0,Wunderground v.1.15,2013-01-20 23:39:00,
2013-01-20 18:44:00,49.4,31.5,30.10,WNW,289,0.0,1.0,50,0.00,,,0.00,0,Wunderground v.1.15,2013-01-20 23:44:00,
2013-01-20 18:49:00,48.8,31.5,30.10,NW,304,1.0,2.0,51,0.00,,,0.00,0,Wunderground v.1.15,2013-01-20 23:49:00,
2013-01-20 18:55:00,48.5,30.7,30.11,SW,234,1.0,3.0,50,0.00,,,0.00,0,Wunderground v.1.15,2013-01-20 23:55:00,
2013-01-20 18:59:00,48.0,32.1,30.11,WSW,246,0.0,3.0,54,0.00,,,0.00,0,Wunderground v.1.15,2013-01-20 23:59:00,
2013-01-20 19:05:00,47.9,31.1,30.11,SW,215,1.0,3.0,52,0.00,,,0.00,0,Wunderground v.1.15,2013-01-21 00:05:00,
2013-01-20 19:10:00,48.3,31.5,30.11,WSW,248,2.0,2.0,52,0.00,,,0.00,0,Wunderground v.1.15,2013-01-21 00:10:00,
2013-01-20 19:15:00,47.9,31.6,30.12,SSW,208,0.0,2.0,53,0.00,,,0.00,0,Wunderground v.1.15,2013-01-21 00:15:00,
2013-01-20 19:20:00,46.8,31.5,30.12,SW,232,0.0,1.0,55,0.00,,,0.00,0,Wunderground v.1.15,2013-01-21 00:20:00,
2013-01-20 19:25:00,46.4,31.1,30.12,West,267,0.0,3.0,55,0.00,,,0.00,0,Wunderground v.1.15,2013-01-21 00:25:00,
2013-01-20 19:30:00,46.6,30.8,30.12,West,264,0.0,0.0,54,0.00,,,0.00,0,Wunderground v.1.15,2013-01-21 00:30:00,
2013-01-20 19:35:00,46.7,30.9,30.12,WSW,240,1.0,3.0,54,0.00,,,0.00,0,Wunderground v.1.15,2013-01-21 00:35:00,
2013-01-20 19:40:00,46.9,30.6,30.12,WSW,245,0.0,2.0,53,0.00,,,0.00,0,Wunderground v.1.15,2013-01-21 00:40:00,
2013-01-20 19:45:00,47.1,30.4,30.12,WSW,238,0.0,2.0,52,0.00,,,0.00,0,Wunderground v.1.15,2013-01-21 00:45:00,
2013-01-20 19:50:00,47.2,30.9,30.13,WNW,292,1.0,1.0,53,0.00,,,0.00,0,Wunderground v.1.15,2013-01-21 00:50:00,
2013-01-20 19:55:00,47.0,30.7,30.13,SW,225,0.0,2.0,53,0.00,,,0.00,0,Wunderground v.1.15,2013-01-21 00:55:00,
2013-01-20 20:00:00,47.0,30.3,30.13,WSW,247,0.0,0.0,52,0.00,,,0.00,0,Wunderground v.1.15,2013-01-21 01:00:00,
2013-01-20 20:05:00,47.1,30.8,30.13,West,272,0.0,1.0,53,0.00,,,0.00,0,Wunderground v.1.15,2013-01-21 01:05:00,
2013-01-20 20:10:00,47.1,30.4,30.13,West,272,0.0,0.0,52,0.00,,,0.00,0,Wunderground v.1.15,2013-01-21 01:10:00,
2013-01-20 20:15:00,46.9,30.6,30.13,West,272,0.0,1.0,53,0.00,,,0.00,0,Wunderground v.1.15,2013-01-21 01:15:00,
2013-01-20 20:20:00,47.0,30.7,30.13,West,272,0.0,0.0,53,0.00,,,0.00,0,Wunderground v.1.15,2013-01-21 01:20:00,
2013-01-20 20:25:00,46.6,30.8,30.13,West,272,0.0,0.0,54,0.00,,,0.00,0,Wunderground v.1.15,2013-01-21 01:25:00,
2013-01-20 20:30:00,46.1,30.8,30.13,West,272,0.0,0.0,55,0.00,,,0.00,0,Wunderground v.1.15,2013-01-21 01:30:00,
2013-01-20 20:35:00,45.1,30.8,30.13,West,272,0.0,0.0,57,0.00,,,0.00,0,Wunderground v.1.15,2013-01-21 01:35:00,
2013-01-20 20:40:00,44.0,30.6,30.13,West,272,0.0,0.0,59,0.00,,,0.00,0,Wunderground v.1.15,2013-01-21 01:40:00,
2013-01-20 20:45:00,42.7,31.0,30.13,West,272,0.0,0.0,63,0.00,,,0.00,0,Wunderground v.1.15,2013-01-21 01:45:00,
2013-01-20 20:50:00,41.9,31.0,30.13,WNW,286,1.0,1.0,65,0.00,,,0.00,0,Wunderground v.1.15,2013-01-21 01:50:00,
2013-01-20 20:55:00,41.3,30.8,30.13,WNW,292,0.0,2.0,66,0.00,,,0.00,0,Wunderground v.1.15,2013-01-21 01:55:00,
2013-01-20 21:01:00,41.5,31.0,30.13,WNW,286,0.0,1.0,66,0.00,,,0.00,0,Wunderground v.1.15,2013-01-21 02:01:00,
2013-01-20 21:06:00,42.2,30.9,30.13,WNW,286,0.0,1.0,64,0.00,,,0.00,0,Wunderground v.1.15,2013-01-21 02:06:00,
2013-01-20 21:11:00,42.8,31.1,30.13,WNW,302,0.0,0.0,63,0.00,,,0.00,0,Wunderground v.1.15,2013-01-21 02:11:00,
2013-01-20 21:16:00,42.9,31.2,30.13,WNW,302,0.0,0.0,63,0.00,,,0.00,0,Wunderground v.1.15,2013-01-21 02:16:00,
2013-01-20 21:21:00,41.7,30.4,30.14,WNW,302,0.0,0.0,64,0.00,,,0.00,0,Wunderground v.1.15,2013-01-21 02:21:00,
2013-01-20 21:26:00,40.6,31.2,30.14,WNW,302,0.0,0.0,69,0.00,,,0.00,0,Wunderground v.1.15,2013-01-21 02:26:00,
2013-01-20 21:31:00,40.0,31.0,30.14,WNW,302,0.0,0.0,70,0.00,,,0.00,0,Wunderground v.1.15,2013-01-21 02:31:00,
2013-01-20 21:36:00,40.9,30.8,30.14,WNW,302,0.0,0.0,67,0.00,,,0.00,0,Wunderground v.1.15,2013-01-21 02:36:00,
2013-01-20 21:41:00,40.3,30.9,30.14,WNW,302,0.0,1.0,69,0.00,,,0.00,0,Wunderground v.1.15,2013-01-21 02:41:00,
2013-01-20 21:46:00,39.9,30.9,30.14,WNW,302,0.0,1.0,70,0.00,,,0.00,0,Wunderground v.1.15,2013-01-21 02:46:00,
2013-01-20 21:51:00,38.5,30.9,30.14,WNW,302,0.0,1.0,74,0.00,,,0.00,0,Wunderground v.1.15,2013-01-21 02:51:00,
2013-01-20 21:56:00,38.6,30.7,30.14,WNW,302,0.0,2.0,73,0.00,,,0.00,0,Wunderground v.1.15,2013-01-21 02:56:00,
2013-01-20 22:01:00,38.5,30.3,30.14,WNW,302,0.0,0.0,72,0.00,,,0.00,0,Wunderground v.1.15,2013-01-21 03:01:00,
2013-01-20 22:06:00,37.7,30.5,30.14,WNW,302,0.0,0.0,75,0.00,,,0.00,0,Wunderground v.1.15,2013-01-21 03:06:00,
2013-01-20 22:11:00,36.1,30.2,30.14,WNW,302,0.0,0.0,79,0.00,,,0.00,0,Wunderground v.1.15,2013-01-21 03:11:00,
2013-01-20 22:16:00,35.5,30.2,30.14,WNW,302,0.0,0.0,81,0.00,,,0.00,0,Wunderground v.1.15,2013-01-21 03:16:00,
2013-01-20 22:21:00,35.3,30.4,30.14,WNW,302,0.0,1.0,82,0.00,,,0.00,0,Wunderground v.1.15,2013-01-21 03:21:00,
2013-01-20 22:26:00,35.5,30.2,30.14,WNW,302,0.0,1.0,81,0.00,,,0.00,0,Wunderground v.1.15,2013-01-21 03:26:00,
2013-01-20 22:31:00,35.3,30.1,30.15,WNW,302,0.0,0.0,81,0.00,,,0.00,0,Wunderground v.1.15,2013-01-21 03:31:00,
2013-01-20 22:36:00,34.3,30.0,30.15,WNW,302,0.0,0.0,84,0.00,,,0.00,0,Wunderground v.1.15,2013-01-21 03:36:00,
2013-01-20 22:41:00,34.1,30.1,30.15,WNW,302,0.0,0.0,85,0.00,,,0.00,0,Wunderground v.1.15,2013-01-21 03:41:00,
2013-01-20 22:46:00,34.1,30.1,30.15,WNW,302,0.0,1.0,85,0.00,,,0.00,0,Wunderground v.1.15,2013-01-21 03:46:00,
2013-01-20 22:51:00,33.5,29.8,30.14,WNW,302,0.0,1.0,86,0.00,,,0.00,0,Wunderground v.1.15,2013-01-21 03:51:00,
2013-01-20 22:56:00,33.7,30.2,30.14,WNW,302,1.0,1.0,87,0.00,,,0.00,0,Wunderground v.1.15,2013-01-21 03:56:00,
2013-01-20 23:01:00,32.7,29.3,30.14,WNW,302,0.0,0.0,87,0.00,,,0.00,0,Wunderground v.1.15,2013-01-21 04:01:00,
2013-01-20 23:06:00,32.3,29.1,30.14,WNW,302,0.0,0.0,88,0.00,,,0.00,0,Wunderground v.1.15,2013-01-21 04:06:00,
2013-01-20 23:11:00,32.5,29.6,30.14,WNW,302,0.0,0.0,89,0.00,,,0.00,0,Wunderground v.1.15,2013-01-21 04:11:00,
2013-01-20 23:16:00,32.0,29.1,30.14,WNW,302,0.0,0.0,89,0.00,,,0.00,0,Wunderground v.1.15,2013-01-21 04:16:00,
2013-01-20 23:21:00,32.1,29.5,30.14,WNW,302,0.0,0.0,90,0.00,,,0.00,0,Wunderground v.1.15,2013-01-21 04:21:00,
2013-01-20 23:26:00,32.1,29.2,30.14,WNW,302,1.0,1.0,89,0.00,,,0.00,0,Wunderground v.1.15,2013-01-21 04:26:00,
2013-01-20 23:31:00,32.0,29.1,30.14,WNW,302,0.0,0.0,89,0.00,,,0.00,0,Wunderground v.1.15,2013-01-21 04:31:00,
2013-01-20 23:36:00,31.7,28.8,30.14,WNW,302,0.0,0.0,89,0.00,,,0.00,0,Wunderground v.1.15,2013-01-21 04:36:00,
2013-01-20 23:41:00,31.3,28.7,30.14,WNW,302,0.0,1.0,90,0.00,,,0.00,0,Wunderground v.1.15,2013-01-21 04:41:00,
2013-01-20 23:46:00,31.0,28.4,30.14,WNW,302,1.0,2.0,90,0.00,,,0.00,0,Wunderground v.1.15,2013-01-21 04:46:00,
2013-01-20 23:51:00,31.1,28.5,30.14,WNW,302,1.0,1.0,90,0.00,,,0.00,0,Wunderground v.1.15,2013-01-21 04:51:00,
2013-01-20 23:56:00,30.9,28.3,30.14,WNW,302,0.0,1.0,90,0.00,,,0.00,0,Wunderground v.1.15,2013-01-21 04:56:00,